Vertical_Velocity
1 0 1 1 1 2 1 -0 -3 -3 -4 -4 -5 -6 -5 -3 0 -4 3 0 -4 2
1 1 3 1 -3 -4 -6 -5 -7 -5 -4 -5 -5 -4 -3 -1 3 5 -3 0 -3 -5
-1 -2 -4 -5 -6 -4 -4 -5 -6 -6 -5 -3 -2 3 3 14 5 1 2 -2 -1 2
0 -2 -3 -3 -5 -6 -5 -3 1 1 4 -2 -2 1 8 -12 -3 -6 3 2 -1 3
-2 -2 -4 -2 0 2 2 5 4 3 1 0 3 1 3 1 -8 1 -0 1 -0 2
-3 1 1 0 1 -0 -1 2 0 1 2 -1 2 2 -1 3 3 1 -2 -0 1 0
-1 -1 -1 -0 -0 1 -0 -2 -3 -2 1 -1 1 -1 -3 -1 -1 0 -1 -1 0 -1
-3 -3 -2 -1 -1 -2 -3 -2 -1 -2 -5 -1 -1 -3 -3 -2 -0 -1 1 2 1 -0
-1 -1 -2 -1 -5 -1 -0 -3 -1 -4 -4 -1 -1 -2 -2 -1 -2 0 -1 -0 3 1
-2 -0 -4 -4 -3 -3 -0 -3 -2 -3 -1 0 -1 -1 -1 -2 -2 -1 1 0 -3 -1
-3 -3 -1 -1 -0 -0 -3 1 -0 -0 1 -0 -0 -1 -3 -1 0 2 2 -1 -3 -2
-3 -2 -2 -3 -3 -0 -2 -1 -0 -1 -0 0 -2 -1 -0 1 -0 1 -0 -3 -3 -3
-4 -2 -2 -3 -4 -2 0 -0 -2 -1 -1 0 0 0 -1 -1 -1 -2 -1 2 -0 -2
-2 -2 -3 -1 -1 0 0 -1 -1 -1 0 -0 -0 -0 -1 -1 -2 -3 -3 -4 -0 0
Height
3111 3105 3100 3095 3089 3083 3077 3072 3067 3062 3055 3049 3045 3039 3034 3028 3024 3020 3016 3013 3010 3006
3103 3097 3091 3087 3082 3075 3068 3062 3056 3051 3045 3039 3033 3028 3022 3018 3012 3009 3007 3003 2999 2994
3096 3090 3083 3077 3070 3063 3057 3052 3046 3040 3034 3028 3023 3019 3014 3009 3004 3001 2998 2994 2991 2987
3087 3081 3074 3067 3060 3054 3047 3041 3034 3027 3023 3017 3013 3008 3005 3001 2998 2994 2992 2988 2983 2979
3078 3071 3065 3059 3053 3046 3039 3033 3026 3020 3015 3010 3005 3001 2997 2994 2991 2988 2985 2980 2975 2971
3069 3064 3059 3052 3045 3037 3030 3024 3018 3012 3006 3001 2997 2994 2991 2987 2984 2981 2977 2972 2967 2963
3064 3058 3051 3044 3036 3028 3022 3015 3009 3003 2998 2993 2990 2986 2983 2981 2978 2974 2969 2964 2959 2954
3055 3049 3042 3034 3027 3020 3014 3008 3001 2995 2990 2986 2983 2980 2977 2975 2971 2966 2961 2957 2951 2945
3047 3040 3032 3025 3018 3012 3005 2999 2994 2990 2985 2981 2978 2975 2972 2969 2965 2960 2954 2948 2943 2937
3037 3030 3023 3017 3010 3004 2999 2993 2988 2984 2980 2977 2973 2970 2967 2963 2958 2953 2947 2941 2934 2928
3030 3023 3016 3010 3004 2997 2991 2986 2982 2978 2975 2971 2968 2965 2961 2957 2952 2947 2941 2934 2927 2920
3022 3016 3009 3003 2997 2991 2984 2979 2975 2971 2969 2966 2963 2959 2955 2950 2946 2941 2935 2928 2921 2913
3015 3008 3002 2995 2989 2983 2978 2974 2969 2967 2965 2962 2958 2954 2950 2945 2940 2935 2929 2923 2916 2909
3007 3000 2993 2987 2981 2977 2972 2968 2965 2963 2960 2957 2954 2950 2945 2940 2934 2928 2922 2916 2911 2905